カタログに戻る

EXPRESS 2A

運用中通信GEO
NORAD 26098·PAYLOAD·🇷🇺 Russia

打ち上げ Mar 12, 2000 から Baikonur Cosmodrome

Loading…

TLE

最新Source: Space-Track

元期: Sep 14, 2026, 13:01 UTC

1 26098U 00013A   26257.54273074 -.00000142  00000-0  00000-0 0  9991
2 26098  13.2273  22.6680 0005409  58.4467 304.5484  0.98257506 96264

AllMySatでEXPRESS 2Aをリアルタイム追跡

Download on the App Store